Other Public Products
Issued by NWS Charleston, SC

Current Version | Previous Version | Graphics & Text | Print | Product List | Glossary On
Versions: 1 2 3 4 5 6 7 8 9 10 11 12 13 14 15 16 17 18 19 20 21 22 23 24 25 26 27 28 29 30 31 32 33 34 35 36 37 38 39 40 41 42 43 44 45 46 47 48 49 50
000 FPUS82 KCHS 270612 OPUCHS TEST...KCHS/KSAV Gateway Observations...TEST National Weather Service Charleston SC 200 AM EDT FRI APR 27 2018 NOTE: "fair" indicates few or no clouds below 12,000 feet with no significant weather and/or obstructions to visibility. SCZ050-WAZ558-NCZ071-TXZ119-213-PAZ071-DCZ001-FLZ074-172-MI076- NYZ176-178-MAZ016-IL014-TNZ027-NJZ106-GAZ044-MD014-270700- ...Gateway Observations for Charleston International... CITY SKY/WX TMP DP RH WIND PRES REMARKS Chas Airport MOCLDY 66 64 93 CALM 29.79F 6HR MIN TEMP: 64; 6HR MAX TEMP: 68; 6HR PCP: 0.07; Seattle CLEAR 64 44 48 SW5 29.88R 6HR MIN TEMP: 64; 6HR MAX TEMP: 81; Charlotte FAIR 53 53 100 CALM 29.80S 6HR MIN TEMP: 51; 6HR MAX TEMP: 61; 6HR PCP: 0.08; Dallas DFW PTCLDY 58 50 75 NE7 30.02R 6HR MIN TEMP: 57; 6HR MAX TEMP: 69; 6HR PCP: TRACE; Dallas Love PTCLDY 60 50 69 NE5 30.03R 6HR MIN TEMP: 60; 6HR MAX TEMP: 72; 6HR PCP: TRACE; Philladelphia CLOUDY 55 46 71 CALM 29.86F 6HR MIN TEMP: 54; 6HR MAX TEMP: 65; Wash National CLOUDY 59 47 64 NE7 29.81F 6HR MIN TEMP: 59; 6HR MAX TEMP: 69; Baltimore CLOUDY 58 47 66 E6 29.81F 6HR MIN TEMP: 57; 6HR MAX TEMP: 65; Miami MOCLDY 76 69 79 CALM 29.92F 6HR MIN TEMP: 76; 6HR MAX TEMP: 78; Detroit MOCLDY 46 38 73 E5 29.81F 6HR MIN TEMP: 46; 6HR MAX TEMP: 58; Newark MOCLDY 60 43 53 E5 29.86F 6HR MIN TEMP: 56; 6HR MAX TEMP: 66; Laguardia CLOUDY 55 42 61 CALM 29.86F 6HR MIN TEMP: 55; 6HR MAX TEMP: 65; J F K MOCLDY 53 45 74 E6 29.88F 6HR MIN TEMP: 53; 6HR MAX TEMP: 62; Boston Logan FAIR 51 41 68 W9 29.86R 6HR MIN TEMP: 51; 6HR MAX TEMP: 60; Ft. Lauderdale MOCLDY 76 69 79 W3 29.91F 6HR MIN TEMP: 76; 6HR MAX TEMP: 78; Chicago O`Hare MOCLDY 57 30 35 S7 29.76F 6HR MIN TEMP: 54; 6HR MAX TEMP: 65; Chicago Midway MOCLDY 55 30 38 S7 29.78F 6HR MIN TEMP: 55; 6HR MAX TEMP: 61; Houston Bush FAIR 62 51 67 N7 30.00R 6HR MIN TEMP: 61; 6HR MAX TEMP: 74; Houston Hobby MOCLDY 61 57 87 CALM 29.99R 6HR MIN TEMP: 60; 6HR MAX TEMP: 76; Nashville FAIR 53 51 93 W5 29.89S FOG 6HR MIN TEMP: 53; 6HR MAX TEMP: 59; Atlanta MOCLDY 55 55 100 NW5 29.82F FOG 6HR MIN TEMP: 55; 6HR MAX TEMP: 59; $$ GAZ044-118-TXZ119-213-NCZ071-DCZ001-MDZ014-506-PAZ021-071-NJZ106- NYZ176-178-MAZ106-OHZ011-021-055-MIZ076-KYZ091-ILZ014-INZ047- MNZ060-ONZ431-270700- ...Gateway Observations for Savannah International... CITY SKY/WX TMP DP RH WIND PRES REMARKS Savannah Arpt FAIR 62 61 96 W5 29.81S 6HR MIN TEMP: 62; 6HR MAX TEMP: 71; Atlanta MOCLDY 55 55 100 NW5 29.82F FOG 6HR MIN TEMP: 55; 6HR MAX TEMP: 59; Charlotte FAIR 53 53 100 CALM 29.80S 6HR MIN TEMP: 51; 6HR MAX TEMP: 61; 6HR PCP: 0.08; Dallas DFW PTCLDY 58 50 75 NE7 30.02R 6HR MIN TEMP: 57; 6HR MAX TEMP: 69; 6HR PCP: TRACE; Houston Bush FAIR 62 51 67 N7 30.00R 6HR MIN TEMP: 61; 6HR MAX TEMP: 74; Wash National CLOUDY 59 47 64 NE7 29.81F 6HR MIN TEMP: 59; 6HR MAX TEMP: 69; Wash Dulles CLOUDY 59 44 57 NE3 29.80F 6HR MIN TEMP: 58; 6HR MAX TEMP: 65; Baltimore CLOUDY 58 47 66 E6 29.81F 6HR MIN TEMP: 57; 6HR MAX TEMP: 65; Philadelphia CLOUDY 55 46 71 CALM 29.86F 6HR MIN TEMP: 54; 6HR MAX TEMP: 65; Newark MOCLDY 60 43 53 E5 29.86F 6HR MIN TEMP: 56; 6HR MAX TEMP: 66; Laguardia CLOUDY 55 42 61 CALM 29.86F 6HR MIN TEMP: 55; 6HR MAX TEMP: 65; J F K MOCLDY 53 45 74 E6 29.88F 6HR MIN TEMP: 53; 6HR MAX TEMP: 62; Boston FAIR 51 41 68 W9 29.86R 6HR MIN TEMP: 51; 6HR MAX TEMP: 60; Pittsburg CLOUDY 50 38 63 CALM 29.81F 6HR MIN TEMP: 50; 6HR MAX TEMP: 60; Akron MOCLDY 47 37 68 E5 29.82F 6HR MIN TEMP: 46; 6HR MAX TEMP: 60; Cleveland FAIR 44 35 70 S5 29.84F 6HR MIN TEMP: 43; 6HR MAX TEMP: 52; Cincinnati FAIR 48 32 53 CALM 29.81F 6HR MIN TEMP: 48; 6HR MAX TEMP: 65; Columbus FAIR 49 45 83 E3 29.79F Detroit MOCLDY 46 38 73 E5 29.81F 6HR MIN TEMP: 46; 6HR MAX TEMP: 58; Chicago O`Hare MOCLDY 57 30 35 S7 29.76F 6HR MIN TEMP: 54; 6HR MAX TEMP: 65; Minneapolis FAIR 48 28 46 W3 29.91F 6HR MIN TEMP: 47; 6HR MAX TEMP: 61; Indianapolis FAIR 49 34 56 SW5 29.83F 6HR MIN TEMP: 48; 6HR MAX TEMP: 60; Toronto Canada CLEAR 43 32 65 VRB2 29.82F $$

USA.gov is the U.S. government's official web portal to all federal, state and local government web resources and services.